RH
90 86 85 84 88 85 83 84 74 73 74 75 73 67 70 71 73 58 60 58 57 58 64 68 79 91 88 73 64 52 68 85 82 73 63 61 58 82 68 61 56 78 85
86 88 87 88 86 79 76 76 75 74 76 77 78 78 78 74 74 72 59 65 76 88 93 92 86 74 69 74 77 70 54 59 84 79 70 64 67 72 68 54 47 71 57
89 91 93 86 84 84 85 82 81 82 84 85 86 86 87 89 86 83 76 61 66 76 83 90 83 76 68 62 57 59 62 52 53 69 77 77 78 80 84 70 48 43 46
94 92 91 89 88 88 89 89 90 90 90 90 90 91 91 90 90 91 92 86 76 67 72 81 81 82 79 78 78 65 56 62 55 52 61 75 79 77 75 91 68 55 46
100 96 97 94 94 93 92 92 91 92 92 92 90 89 91 95 97 96 94 94 94 90 86 74 70 82 89 89 88 86 80 58 61 61 54 59 76 78 72 79 86 76 62
100 100 99 94 92 90 87 86 83 82 82 81 82 83 85 85 85 83 82 83 88 90 92 91 88 83 78 79 81 88 87 87 69 71 62 58 62 74 69 94 81 75 68
91 88 86 83 79 72 66 63 62 61 57 52 52 55 60 60 62 62 60 66 76 82 86 89 91 92 90 89 85 82 83 90 96 92 63 60 60 62 62 79 91 80 75
74 68 64 59 52 48 44 42 40 39 39 38 37 38 40 42 43 44 45 48 51 60 72 84 91 93 92 91 90 89 87 84 92 98 87 80 58 55 61 75 82 86 80
48 47 44 42 38 32 27 27 27 27 29 29 30 30 30 32 32 33 33 34 35 39 47 54 62 70 78 80 82 89 91 90 95 98 87 87 78 79 57 70 84 88 84
38 34 29 25 24 24 25 25 28 31 32 34 34 35 36 36 37 38 39 41 39 38 37 38 45 50 60 67 74 80 90 93 99 98 98 92 82 80 76 92 87 93 96
32 29 29 27 26 27 28 30 32 34 37 38 39 43 42 43 47 48 52 53 50 48 46 44 42 42 46 54 63 68 75 89 94 98 99 92 92 90 92 92 96 94 89
36 34 32 30 30 32 33 34 36 38 41 44 48 51 57 58 59 60 60 59 60 60 58 55 51 48 46 47 49 56 61 69 87 98 98 83 86 89 98 98 94 94 95
40 37 34 34 35 35 34 37 40 45 49 53 57 61 62 60 59 59 59 59 61 62 65 64 60 58 54 50 48 50 53 53 69 73 78 76 85 89 99 99 96 84 82
41 38 36 36 36 35 36 39 44 49 54 59 64 66 63 61 62 64 63 63 63 65 66 69 70 70 65 60 57 50 50 54 57 59 74 81 84 82 79 91 86 86 85
42 40 38 38 39 40 39 42 47 53 61 68 68 66 62 62 64 65 64 64 64 66 69 69 70 71 71 69 69 66 60 55 56 56 62 75 80 77 72 73 94 95 94
42 39 40 42 44 42 40 46 56 62 66 68 65 60 63 66 65 65 65 65 65 68 69 68 69 68 70 76 73 70 70 68 62 60 64 60 63 64 61 59 60 65 78
40 41 43 44 44 44 47 53 55 57 61 64 56 57 59 58 57 60 62 64 66 69 70 66 64 63 68 81 63 67 72 71 70 68 66 64 64 66 65 70 86 93 92
41 43 44 46 46 49 51 52 54 54 57 56 53 55 56 55 52 57 60 62 58 59 65 71 77 83 84 81 75 73 66 59 66 75 76 74 75 84 94 96 98 100 100
42 44 44 46 49 49 49 53 54 54 55 56 56 56 55 51 40 39 40 48 52 56 69 82 80 86 84 76 74 79 88 87 86 81 84 88 87 82 81 83 88 96 98
43 44 44 47 48 45 47 50 51 53 54 59 58 54 54 55 48 37 38 47 51 57 77 81 79 80 82 79 78 84 89 84 78 75 78 82 75 76 75 73 72 76 74
46 45 46 46 45 48 51 49 46 50 51 55 58 59 58 58 52 41 36 38 49 61 73 83 80 77 73 76 76 76 82 81 78 77 73 76 87 86 81 78 76 76 87
45 46 46 44 48 53 51 46 47 49 51 55 59 57 53 49 48 42 37 36 46 51 58 70 83 86 76 78 81 86 71 69 75 82 84 86 88 93 90 86 78 71 73
50 46 44 46 50 51 48 47 49 50 50 48 52 53 50 45 42 38 36 33 32 36 44 55 66 85 89 78 83 79 76 73 62 82 90 90 88 90 95 87 80 74 63
48 46 47 48 49 51 50 48 49 49 51 45 47 48 50 43 39 36 35 34 31 31 35 38 52 72 90 88 79 75 79 78 69 68 80 87 89 89 93 87 77 72 60
46 49 49 48 49 51 52 49 50 52 49 48 48 49 49 45 40 36 35 37 34 29 31 35 38 59 80 98 95 90 85 80 82 73 69 73 72 91 96 89 78 67 45
54 55 51 49 49 51 52 52 52 51 52 56 51 51 48 48 43 37 37 37 36 31 29 32 36 48 67 89 92 85 80 90 84 79 74 66 72 72 94 86 87 70 45
Wind_Speed
10 11 9 9 9 7 6 5 7 7 7 7 7 7 8 8 8 7 7 6 5 4 5 5 5 4 4 5 6 6 4 3 3 3 3 3 4 6 5 5 6 5 4
14 11 9 10 9 8 7 7 7 7 7 7 7 7 7 7 7 7 6 5 5 5 4 4 3 4 3 3 3 4 4 1 1 1 1 1 2 3 4 4 4 3 2
12 11 8 8 9 8 7 7 6 6 6 5 5 5 5 6 6 6 6 5 3 3 3 6 3 4 4 4 4 4 4 3 3 4 4 3 2 2 4 4 4 3 2
13 12 9 9 9 8 7 6 5 5 4 3 4 4 4 5 5 6 6 5 5 4 4 3 5 7 6 6 6 6 5 5 5 5 6 6 6 5 6 6 4 3 3
15 13 11 11 10 9 8 7 6 5 4 4 4 4 5 6 5 5 5 5 5 6 6 6 6 8 8 8 8 8 7 6 6 7 7 8 9 9 8 9 9 6 5
17 14 11 10 9 8 7 5 5 4 4 4 4 4 4 5 6 6 6 6 6 7 8 9 9 9 9 9 10 10 9 8 7 8 9 9 10 11 11 11 10 9 7
17 15 13 9 8 6 5 3 3 3 4 5 5 5 5 6 6 7 7 7 7 8 8 9 10 10 11 11 11 11 11 10 10 9 9 10 11 12 12 11 11 13 10
15 13 11 8 7 6 4 4 4 4 4 5 5 5 6 6 7 8 8 9 9 9 9 9 9 10 11 11 12 13 12 12 12 11 12 12 12 12 14 14 13 12 14
13 11 10 7 6 4 5 5 5 5 5 6 6 7 7 8 8 9 9 10 11 11 11 11 11 11 11 12 13 13 13 13 12 13 14 13 13 13 14 15 16 15 13
12 10 8 6 5 4 5 4 5 4 5 6 6 7 7 8 9 10 10 11 11 12 13 13 14 13 13 12 12 13 13 14 13 13 13 15 15 16 16 16 16 17 15
10 9 8 7 6 5 6 6 6 6 7 7 7 8 9 10 11 11 11 12 12 11 11 12 13 14 13 13 12 12 12 12 14 14 14 17 17 19 18 18 18 18 18
9 8 7 7 6 6 7 7 7 7 8 9 10 10 10 11 12 11 11 12 12 12 12 12 12 12 12 13 12 11 10 11 12 11 13 15 15 17 17 17 18 19 20
8 7 6 6 6 7 7 7 8 9 9 9 10 10 11 12 12 13 13 14 14 14 15 14 14 13 12 12 13 12 10 10 10 12 14 13 12 13 14 13 15 17 18
8 6 5 5 5 6 7 7 7 8 8 9 10 10 12 14 14 14 15 15 15 15 14 14 14 13 12 10 10 11 12 10 9 10 11 10 10 10 10 10 11 10 14
8 6 4 4 4 5 6 7 7 7 7 8 9 11 13 14 14 15 15 15 15 15 15 14 14 13 13 12 11 11 10 10 10 8 8 9 9 9 10 9 9 9 9
8 5 4 3 3 5 5 6 6 6 7 7 9 12 13 14 15 15 15 15 16 16 15 14 14 13 12 11 11 10 9 8 7 7 6 5 5 6 7 9 9 9 8
8 6 4 2 2 3 4 4 5 5 5 7 10 11 12 14 14 14 15 15 16 16 15 14 14 13 13 11 13 10 8 7 7 6 6 6 5 5 5 6 7 9 9
9 7 4 2 0 2 3 3 4 4 5 7 9 10 11 13 13 14 14 15 16 15 15 14 14 13 12 14 15 12 11 8 5 3 3 4 4 4 4 7 9 10 11
10 8 6 4 1 1 2 2 3 3 4 5 7 8 10 10 12 12 13 13 14 15 15 14 13 13 12 15 13 10 10 8 9 11 12 12 10 10 8 6 6 4 10
12 9 7 5 3 2 3 3 3 2 4 5 6 7 8 9 11 11 12 12 14 15 14 13 14 13 12 16 11 7 10 12 12 12 11 10 9 10 9 7 6 5 6
13 12 9 6 4 3 3 3 3 3 5 4 5 6 7 8 9 10 11 12 13 14 14 13 12 13 13 17 10 6 3 8 11 10 12 12 11 12 12 12 12 11 10
16 13 10 8 5 4 3 3 3 5 4 6 5 5 6 6 8 9 11 12 12 12 13 13 13 12 9 14 9 3 2 2 6 8 9 11 13 10 12 15 15 16 15
18 16 12 8 6 5 4 4 4 5 5 6 5 6 7 7 7 8 9 10 10 11 11 11 10 9 8 8 8 4 3 3 11 1 7 9 10 8 7 9 12 15 16
20 16 13 9 6 5 5 6 6 7 7 7 9 9 9 8 8 8 9 10 10 10 9 9 9 8 6 7 6 5 3 5 2 4 1 5 8 8 6 6 8 11 13
18 18 13 9 7 6 7 7 9 10 11 12 13 13 13 11 10 10 10 10 10 10 10 9 8 6 5 5 5 6 6 7 5 5 7 5 9 6 4 6 8 11 14
14 15 12 9 7 7 8 9 11 13 14 16 16 17 16 14 13 12 12 11 11 10 10 9 8 6 5 4 5 4 4 3 6 4 4 9 10 6 4 6 8 12 14
Wind_Direction
163 161 151 143 136 126 120 108 95 86 79 75 67 60 55 55 50 50 54 57 62 65 59 54 52 45 36 38 41 46 61 74 74 66 91 90 62 54 56 46 45 51 79
154 153 151 142 135 123 111 102 94 85 75 68 62 56 49 45 44 41 45 53 58 50 31 357 33 27 21 16 10 12 18 15 278 9 29 59 46 47 23 9 16 28 48
150 147 143 139 129 119 110 102 94 83 70 61 54 46 37 27 26 29 27 30 25 16 15 56 348 350 356 357 348 339 333 325 292 268 259 256 273 321 333 334 339 347 357
140 140 136 133 122 116 110 105 96 88 77 58 43 26 14 6 2 356 353 357 357 342 324 329 325 316 317 321 328 335 324 310 303 284 272 264 263 274 287 290 298 304 311
133 134 127 123 120 113 109 102 93 82 71 51 37 24 25 23 19 7 351 333 322 320 317 310 289 292 297 298 305 309 310 303 293 290 282 272 264 270 283 270 268 266 268
123 123 123 121 117 115 111 105 88 68 44 25 17 9 6 1 359 347 342 335 326 316 307 301 297 292 292 293 292 290 291 291 290 281 282 277 266 270 281 292 260 257 254
128 129 121 129 125 117 104 88 60 24 24 15 7 1 358 353 346 346 349 345 337 328 314 305 302 292 291 285 285 285 281 282 281 281 284 279 274 271 273 284 276 251 250
129 126 124 125 111 96 76 61 41 25 10 5 358 357 356 350 343 338 335 330 327 323 318 314 307 298 289 288 283 281 282 278 276 274 282 284 283 278 274 272 278 269 253
122 124 119 114 100 78 57 43 32 15 4 357 348 346 342 337 331 325 319 315 310 306 304 305 303 301 297 293 289 289 277 272 270 266 274 280 284 282 278 271 271 273 275
121 116 109 100 84 65 49 29 21 10 2 3 357 353 346 340 338 333 332 329 321 312 306 299 296 298 299 298 296 285 278 267 262 267 270 273 281 281 277 274 272 270 266
113 106 97 89 79 64 51 42 34 25 22 17 12 16 7 7 3 360 360 354 348 337 328 312 301 294 293 293 292 288 284 277 268 263 266 273 280 279 280 278 272 269 263
112 100 92 81 72 60 50 42 36 32 29 27 26 24 26 25 20 13 9 4 3 359 354 345 332 317 304 299 298 297 295 287 278 275 274 280 284 284 281 278 274 264 262
125 110 95 79 65 52 45 41 41 40 35 32 31 27 24 19 15 15 13 10 8 6 6 3 360 353 340 319 303 299 301 299 293 279 280 286 288 290 295 296 289 282 271
139 120 96 79 62 51 44 41 38 35 34 34 28 18 15 15 14 16 12 8 7 6 5 5 4 1 355 347 329 303 287 292 297 295 286 286 291 296 303 304 308 301 287
149 131 106 81 67 54 45 42 41 47 42 32 18 11 11 14 14 12 9 7 5 4 2 -0 358 355 352 351 349 337 318 289 285 297 299 290 286 288 293 303 318 327 322
160 144 127 101 73 49 45 48 48 40 34 18 12 15 18 19 16 12 9 8 6 4 3 358 354 347 345 343 348 342 334 324 297 285 287 297 306 300 299 302 308 312 314
170 166 152 120 71 40 41 43 33 26 24 21 23 23 23 21 17 14 13 11 9 4 359 356 353 353 350 344 345 342 333 322 315 303 304 305 319 323 316 327 360 12 8
184 179 171 171 129 38 33 22 17 23 30 31 28 31 26 23 20 17 17 15 12 9 4 3 359 358 1 351 349 346 330 320 324 347 42 75 82 88 75 63 65 56 49
194 191 190 202 212 343 341 341 347 11 21 25 26 26 23 20 18 17 15 15 16 17 17 10 6 4 358 353 353 357 17 39 79 83 78 76 78 74 69 56 45 54 62
203 201 206 212 229 281 301 305 312 333 358 4 7 8 10 10 12 13 14 15 17 21 21 18 10 5 1 354 354 36 73 76 77 72 71 70 62 53 44 34 30 28 24
207 208 209 213 232 262 283 307 331 342 336 333 340 351 359 0 2 5 10 13 15 21 20 18 8 6 7 6 6 10 52 75 54 58 56 57 39 34 28 27 28 24 16
210 209 210 216 228 246 273 304 315 316 311 307 312 327 337 344 348 356 3 7 9 15 17 16 15 2 359 8 2 328 338 246 27 53 55 45 37 35 33 27 27 26 21
209 210 213 216 227 246 266 282 292 301 301 299 297 306 310 322 331 340 349 353 358 2 8 9 10 10 356 352 10 7 337 339 342 25 50 43 39 40 46 26 24 19 19
215 210 212 215 227 236 255 263 275 281 283 291 297 298 296 305 310 319 329 335 342 348 353 357 356 357 346 332 338 348 291 272 313 307 264 21 22 24 34 23 22 15 15
211 206 207 214 227 235 253 269 274 278 291 293 291 293 294 295 299 305 310 317 325 332 335 338 342 340 334 316 327 330 327 307 276 285 295 305 334 356 18 11 30 19 15
197 198 201 215 227 241 263 278 281 289 292 288 292 291 292 292 295 297 298 302 308 316 320 321 321 317 304 276 286 302 301 303 323 321 307 326 312 318 315 325 355 1 11